St. Petersburg Airport, FL

2:18 PM EDT on August 20, 2017 (GMT -0400)
Saint Petersburg-Clearwater International

Weather History for KPIE - January, 1998

Change the Weather History Date:

Friday, January 2, 1998

  Actual Average Record
Temperature  
Mean Temperature 60 °F -  
Max Temperature 71 °F 71 °F 86 °F (2017)
Min Temperature 48 °F 56 °F 37 °F (2008)
Degree Days  
Heating Degree Days 6    
Growing Degree Days 10 (Base 50)    
Moisture  
Dew Point 51 °F    
Average Humidity 77    
Maximum Humidity 93    
Minimum Humidity 50    
Precipitation  
Precipitation 0.00 in - - ()
Sea Level Pressure  
Sea Level Pressure 30.40 in    
Wind  
Wind Speed 10 mph (ENE)    
Max Wind Speed 16 mph    
Max Gust Speed -    
Visibility 7 miles    
Events      
Averages and records for this station are not official NWS values.
T = Trace of Precipitation, MM = Missing Value Source: NWS Daily Summary

Daily Weather History Graph

Daily Weather History Graph

Search for Another Location

Airport or City:

Trip Planner

Search our weather history database for the weather conditions in past years. The results will help you decide how hot, cold, wet, or windy it might be!

Date:

Astronomy

Jan. 02, 1998 Rise Set
Actual Time 7:22 AM EST 5:47 PM EST
Civil Twilight 6:56 AM EST 6:13 PM EST
Nautical Twilight 6:27 AM EST 6:42 PM EST
Astronomical Twilight 5:58 AM EST 7:10 PM EST
Moon 10:22 AM EST (1/2) 10:10 PM EST (1/2)
Length of Visible Light 11h 16m
Length of Day
10h 25m
Waxing Crescent, 19% of the Moon is Illuminated
Jan 2
Waxing Crescent
Jan 5
First Quarter
Jan 12
Full
Jan 20
Last Quarter
Jan 28
New

Hourly Weather History & Observations

Time (EST) Temp. Dew Point Humidity Pressure Visibility Wind Dir Wind Speed Gust Speed Precip Events Conditions
12:50 AM 51.8 °F 46.4 °F 82% 30.46 in 7.0 mi NE 11.5 mph - N/A   Clear
1:50 AM 50.0 °F 46.4 °F 87% 30.46 in 7.0 mi ENE 9.2 mph - N/A   Clear
2:50 AM 50.0 °F 46.4 °F 87% 30.44 in 7.0 mi NE 11.5 mph - N/A   Clear
3:50 AM 48.2 °F 46.4 °F 93% 30.43 in 7.0 mi NNE 8.1 mph - N/A   Clear
4:50 AM 50.0 °F 46.4 °F 87% 30.43 in 7.0 mi NE 11.5 mph - N/A   Clear
5:50 AM 50.0 °F 46.4 °F 87% 30.43 in 7.0 mi NE 11.5 mph - N/A   Clear
6:50 AM 51.8 °F 46.4 °F 82% 30.43 in 7.0 mi NE 11.5 mph - N/A   Partly Cloudy
7:53 AM 53.6 °F 48.2 °F 82% 30.45 in 7.0 mi ENE 9.2 mph - N/A   Partly Cloudy
8:50 AM 53.6 °F 48.2 °F 82% 30.45 in 7.0 mi ENE 9.2 mph - N/A   Scattered Clouds
9:50 AM 57.2 °F 50.0 °F 77% 30.46 in 7.0 mi ENE 9.2 mph - N/A   Scattered Clouds
10:48 AM 62.6 °F 51.8 °F 68% 30.46 in 10.0 mi ENE 8.1 mph - N/A   Scattered Clouds
11:50 AM 66.2 °F 53.6 °F 64% 30.44 in 7.0 mi East 8.1 mph - N/A   Mostly Cloudy
12:50 PM 69.8 °F 53.6 °F 56% 30.40 in 7.0 mi East 11.5 mph - N/A   Mostly Cloudy
1:48 PM 71.6 °F 51.8 °F 50% 30.37 in 7.0 mi ESE 16.1 mph - N/A   Mostly Cloudy
2:50 PM 69.8 °F 51.8 °F 53% 30.36 in 10.0 mi East 10.4 mph - N/A   Overcast
3:53 PM 66.2 °F 55.4 °F 68% 30.34 in 7.0 mi ENE 8.1 mph - N/A   Overcast
4:51 PM 64.4 °F 55.4 °F 73% 30.35 in 7.0 mi ENE 10.4 mph - N/A   Mostly Cloudy
5:50 PM 64.4 °F 55.4 °F 73% 30.36 in 7.0 mi ENE 11.5 mph - N/A   Mostly Cloudy
6:50 PM 64.4 °F 55.4 °F 73% 30.36 in 7.0 mi NE 11.5 mph - N/A   Mostly Cloudy
7:50 PM 60.8 °F 55.4 °F 82% 30.37 in 7.0 mi East 9.2 mph - N/A   Scattered Clouds
8:46 PM 60.8 °F 55.4 °F 82% 30.38 in 7.0 mi ENE 5.8 mph - N/A   Scattered Clouds
9:50 PM 59.0 °F 55.4 °F 88% 30.38 in 7.0 mi NE 5.8 mph - N/A   Mostly Cloudy
10:53 PM 59.0 °F 53.6 °F 82% 30.36 in 7.0 mi NE 8.1 mph - N/A   Scattered Clouds
11:50 PM 59.0 °F 53.6 °F 82% 30.35 in 7.0 mi ENE 8.1 mph - N/A   Clear